Location: Prairie State College
(41.5244°N, 87.6382°W)
Time: 05:19:05
(UTC-05:00)

ARGOS Delta rocket - Pass Details

Date: 27 June 2018
Orbit: 636 x 837 km, 96.5° (Epoch: 24 September)

Event Time Altitude Azimuth Distance (km) Brightness Sun altitude
Rises 04:09:10 0° 118° (ESE) 3,332 7.5 -10.9°
Reaches altitude 10° 04:12:37 10° 95° (E) 2,374 7.1 -10.5°
Maximum altitude 04:15:20 14° 64° (ENE) 2,057 7.4 -10.1°
Drops below altitude 10° 04:17:59 10° 33° (NNE) 2,320 8.0 -9.8°
Sets 04:21:17 0° 9° (N) 3,208 8.1 -9.3°
